TimeEST,TemperatureF,Dew PointF,Humidity,Sea Level PressureIn,VisibilityMPH,Wind Direction,Wind SpeedMPH,Gust SpeedMPH,PrecipitationIn,Events,Conditions,WindDirDegrees,DateUTC
12:15 AM,27.9,25.7,92,30.25,5.0,Calm,Calm,-,N/A,,Clear,0,2013-01-04 05:15:00
12:35 AM,27.9,25.7,92,30.24,7.0,Calm,Calm,-,N/A,,Clear,0,2013-01-04 05:35:00
12:55 AM,27.1,25.3,93,30.24,7.0,Calm,Calm,-,N/A,,Clear,0,2013-01-04 05:55:00
1:15 AM,27.9,25.7,92,30.24,5.0,Calm,Calm,-,N/A,,Clear,0,2013-01-04 06:15:00
1:35 AM,27.7,25.5,92,30.24,7.0,Calm,Calm,-,N/A,,Clear,0,2013-01-04 06:35:00
1:55 AM,26.4,24.4,92,30.24,7.0,Calm,Calm,-,N/A,,Clear,0,2013-01-04 06:55:00
2:15 AM,26.8,24.8,92,30.24,7.0,Calm,Calm,-,N/A,,Clear,0,2013-01-04 07:15:00
2:35 AM,25.5,23.5,92,30.24,5.0,Calm,Calm,-,N/A,,Clear,0,2013-01-04 07:35:00
2:55 AM,27.9,25.7,92,30.25,5.0,Calm,Calm,-,N/A,,Clear,0,2013-01-04 07:55:00
3:15 AM,25.3,23.4,92,30.26,5.0,Calm,Calm,-,N/A,,Clear,0,2013-01-04 08:15:00
3:35 AM,25.3,23.4,92,30.26,5.0,Calm,Calm,-,N/A,,Clear,0,2013-01-04 08:35:00
3:55 AM,26.4,24.4,92,30.26,3.0,Calm,Calm,-,N/A,,Clear,0,2013-01-04 08:55:00
4:15 AM,25.9,23.9,92,30.25,2.5,Calm,Calm,-,N/A,,Clear,0,2013-01-04 09:15:00
6:35 AM,26.2,24.1,92,30.27,7.0,Calm,Calm,-,N/A,,Clear,0,2013-01-04 11:35:00
6:55 AM,25.3,23.0,91,30.27,7.0,Calm,Calm,-,N/A,,Clear,0,2013-01-04 11:55:00
7:15 AM,25.3,23.0,91,30.27,7.0,Calm,Calm,-,N/A,,Clear,0,2013-01-04 12:15:00
7:35 AM,25.3,23.0,91,30.28,7.0,Calm,Calm,-,N/A,,Clear,0,2013-01-04 12:35:00
7:55 AM,25.3,23.0,91,30.28,7.0,Calm,Calm,-,N/A,,Clear,0,2013-01-04 12:55:00
8:35 AM,30.2,27.5,90,30.28,10.0,Calm,Calm,-,N/A,,Clear,0,2013-01-04 13:35:00
8:55 AM,32.2,29.3,89,30.28,10.0,Calm,Calm,-,N/A,,Clear,0,2013-01-04 13:55:00
9:15 AM,32.9,28.8,85,30.28,10.0,Calm,Calm,-,N/A,,Clear,0,2013-01-04 14:15:00
9:35 AM,35.1,29.5,80,30.29,10.0,Calm,Calm,-,N/A,,Clear,0,2013-01-04 14:35:00
9:55 AM,36.3,29.3,76,30.30,10.0,Calm,Calm,-,N/A,,Clear,0,2013-01-04 14:55:00
10:15 AM,37.6,27.3,66,30.29,10.0,West,3.5,-,N/A,,Clear,280,2013-01-04 15:15:00
10:35 AM,37.6,25.7,62,30.29,10.0,Calm,Calm,-,N/A,,Clear,0,2013-01-04 15:35:00
10:55 AM,38.3,25.9,61,30.28,4.0,Calm,Calm,-,N/A,,Haze,0,2013-01-04 15:55:00
11:15 AM,39.7,27.1,61,30.28,10.0,NW,3.5,-,N/A,,Clear,320,2013-01-04 16:15:00
11:35 AM,40.8,26.4,57,30.27,10.0,West,3.5,-,N/A,,Clear,270,2013-01-04 16:35:00
11:55 AM,43.2,28.0,55,30.26,10.0,Calm,Calm,-,N/A,,Clear,0,2013-01-04 16:55:00
12:15 PM,45.1,30.6,57,30.24,10.0,Calm,Calm,-,N/A,,Clear,0,2013-01-04 17:15:00
12:35 PM,45.1,28.0,51,30.22,10.0,WSW,3.5,-,N/A,,Clear,250,2013-01-04 17:35:00
12:55 PM,45.1,27.0,49,30.21,10.0,Calm,Calm,-,N/A,,Clear,0,2013-01-04 17:55:00
1:15 PM,45.1,25.9,47,30.19,10.0,West,5.8,-,N/A,,Clear,280,2013-01-04 18:15:00
1:35 PM,45.1,26.4,48,30.19,10.0,West,3.5,-,N/A,,Clear,260,2013-01-04 18:35:00
1:55 PM,45.1,25.7,47,30.18,10.0,Calm,Calm,-,N/A,,Clear,0,2013-01-04 18:55:00
2:15 PM,45.1,24.6,45,30.17,10.0,Calm,Calm,-,N/A,,Clear,0,2013-01-04 19:15:00
2:35 PM,46.8,26.2,45,30.18,10.0,Calm,Calm,-,N/A,,Clear,0,2013-01-04 19:35:00
2:55 PM,46.4,24.8,43,30.18,10.0,WSW,3.5,-,N/A,,Clear,250,2013-01-04 19:55:00
3:15 PM,46.4,24.4,42,30.19,10.0,Calm,Calm,-,N/A,,Clear,0,2013-01-04 20:15:00
3:35 PM,46.2,25.3,44,30.18,10.0,Calm,Calm,-,N/A,,Clear,0,2013-01-04 20:35:00
3:55 PM,45.1,26.4,48,30.18,10.0,Calm,Calm,-,N/A,,Clear,0,2013-01-04 20:55:00
4:15 PM,45.1,25.7,47,30.18,10.0,Calm,Calm,-,N/A,,Clear,0,2013-01-04 21:15:00
4:35 PM,45.1,26.2,48,30.18,10.0,Calm,Calm,-,N/A,,Clear,0,2013-01-04 21:35:00
4:55 PM,42.8,26.6,53,30.19,10.0,Calm,Calm,-,N/A,,Clear,0,2013-01-04 21:55:00
5:15 PM,38.5,27.0,63,30.19,10.0,Calm,Calm,-,N/A,,Clear,0,2013-01-04 22:15:00
5:55 PM,40.1,28.2,63,30.20,10.0,Calm,Calm,-,N/A,,Clear,0,2013-01-04 22:55:00
6:15 PM,40.1,28.6,63,30.20,10.0,Calm,Calm,-,N/A,,Clear,0,2013-01-04 23:15:00
6:35 PM,39.2,29.1,67,30.20,10.0,Calm,Calm,-,N/A,,Clear,0,2013-01-04 23:35:00
6:55 PM,38.8,29.3,69,30.21,10.0,Calm,Calm,-,N/A,,Clear,0,2013-01-04 23:55:00
7:15 PM,39.0,29.7,69,30.21,10.0,Calm,Calm,-,N/A,,Clear,0,2013-01-05 00:15:00
7:35 PM,39.0,29.1,68,30.22,10.0,Calm,Calm,-,N/A,,Clear,0,2013-01-05 00:35:00
7:55 PM,39.4,28.0,64,30.22,10.0,Calm,Calm,-,N/A,,Clear,0,2013-01-05 00:55:00
8:15 PM,40.1,26.2,58,30.23,10.0,Calm,Calm,-,N/A,,Clear,0,2013-01-05 01:15:00
8:35 PM,40.1,24.8,54,30.24,10.0,Calm,Calm,-,N/A,,Clear,0,2013-01-05 01:35:00
8:55 PM,40.3,25.0,54,30.24,10.0,Calm,Calm,-,N/A,,Clear,0,2013-01-05 01:55:00
9:15 PM,40.8,25.2,54,30.24,10.0,Calm,Calm,-,N/A,,Clear,0,2013-01-05 02:15:00
9:35 PM,40.1,23.7,52,30.24,10.0,Calm,Calm,-,N/A,,Clear,0,2013-01-05 02:35:00
9:55 PM,38.7,24.3,56,30.24,10.0,Calm,Calm,-,N/A,,Clear,0,2013-01-05 02:55:00
10:15 PM,36.7,24.4,61,30.24,10.0,Calm,Calm,-,N/A,,Clear,0,2013-01-05 03:15:00
10:35 PM,36.5,25.0,63,30.25,10.0,Calm,Calm,-,N/A,,Clear,0,2013-01-05 03:35:00
10:55 PM,35.4,24.4,64,30.25,10.0,Calm,Calm,-,N/A,,Clear,0,2013-01-05 03:55:00
11:15 PM,35.2,23.5,62,30.25,10.0,Calm,Calm,-,N/A,,Clear,0,2013-01-05 04:15:00
11:35 PM,35.1,23.5,63,30.25,10.0,Calm,Calm,-,N/A,,Clear,0,2013-01-05 04:35:00
11:55 PM,35.1,22.3,60,30.26,10.0,Calm,Calm,-,N/A,,Clear,0,2013-01-05 04:55:00